Vertical_Velocity
-1 -1 0 3 0 -3 -5 -10 -14 16 16 14 -4 -7 8 10 7 5 -1 3 -5 -3 -1 1 -2 -0 3 -1 -1 3 2 1 -1 -0 -0 1 2 0
-5 -2 0 2 -4 -2 0 -6 -13 -8 -13 22 2 7 -6 -2 1 -5 -1 -1 0 1 -7 1 4 -5 -3 1 -2 1 -1 2 -1 -0 1 1 1 1
-9 -7 1 -2 -2 -4 -4 -2 -7 -13 -26 60 8 3 2 -8 6 -3 -2 2 -0 1 2 -0 0 1 -3 -3 1 -2 1 2 2 1 -0 1 2 0
-4 -11 -2 -5 -0 -1 -4 -3 -7 -5 -22 -6 28 15 -1 -9 3 3 2 1 -5 2 -2 -3 -0 4 -3 -1 5 1 -1 0 -0 3 1 -0 1 2
-1 -5 -3 -5 -0 0 -3 -5 -4 -4 -12 -15 21 17 12 9 -6 1 4 5 -5 2 3 -1 -2 -1 3 -7 0 2 -2 0 2 2 1 1 -0 -0
-2 -3 -2 -4 -5 -1 -0 -2 -3 -6 -5 -20 -11 29 9 11 -2 8 0 1 -3 3 -1 -0 12 3 1 -13 -1 6 -1 1 0 1 1 1 -1 -0
-1 0 -1 -2 -1 -1 -3 3 -2 -4 -2 -7 -12 -6 25 15 2 0 1 -3 0 20 6 6 -3 5 -1 -5 -1 -6 1 -3 -1 -0 -0 0 0 -1
0 0 -0 -1 -3 -2 -1 -2 0 -3 -3 -7 -5 -7 15 13 5 -1 -3 0 -14 21 2 -9 12 -18 -1 -2 6 -1 7 11 -3 3 1 1 2 2
-1 1 1 1 -1 -3 -1 -3 -4 -2 -2 1 -5 -2 -4 19 8 11 6 -2 -0 23 -6 -14 0 0 -3 -13 -4 -2 2 5 2 -1 3 2 -1 2
-1 0 -2 3 2 -2 -1 -2 -1 -1 -10 -5 -6 9 -2 12 7 7 6 -5 -1 20 8 -41 23 -4 5 1 -1 -1 0 3 -2 2 -2 -2 0 -0
-0 0 -1 2 7 2 -2 -1 -2 -4 2 -4 -7 1 1 4 10 2 3 -3 1 14 -1 -29 44 0 -7 1 0 6 3 4 1 -1 -1 2 1 1
0 1 1 -3 1 5 -4 -5 -9 9 -1 -0 -7 -6 1 3 4 0 15 -17 6 9 25 -26 41 9 -5 5 -4 27 7 -2 5 2 3 3 6 -6
-0 5 1 -1 2 1 -0 -5 -1 4 2 -8 -6 -7 -2 -3 -2 9 3 -2 8 -6 37 -14 7 19 -15 17 -9 6 5 6 4 2 -1 1 -1 -3
2 3 3 4 1 1 -2 -0 -2 -3 -5 -4 -6 -2 -2 -1 3 8 4 5 -1 -7 26 -2 -0 7 -6 5 -4 -2 9 5 -0 1 1 7 5 5
-2 -1 -0 5 2 1 2 -1 -1 -3 -4 -7 -1 -3 -0 3 -1 -5 -1 -6 -9 -4 10 3 -4 15 2 -3 10 -2 17 -1 -6 6 2 0 1 1
-1 -1 2 -2 0 -1 0 1 -1 -3 -6 -4 -3 2 -0 -2 -6 0 -4 1 -13 7 6 6 5 3 5 9 7 -1 10 -14 3 3 -4 6 -0 -5
-4 0 1 1 4 2 2 3 0 -1 -3 -4 -5 0 -2 -1 -5 1 -6 3 -21 -1 4 9 8 2 1 17 -9 1 -3 4 16 -6 -7 14 9 5
2 -0 5 1 2 2 2 4 3 2 1 -3 -4 -4 -1 -2 -3 -1 -6 -6 -15 2 -0 9 12 2 1 -2 2 -6 -1 -3 6 -4 -7 2 -0 5
-0 2 1 1 3 2 1 1 5 3 1 3 -2 -0 -4 -4 0 6 0 -5 -16 -9 -5 3 5 1 -8 -24 30 15 -1 12 7 18 2 -8 -2 5
-3 -0 -1 -2 -1 -1 -1 -1 1 3 1 -1 1 2 2 -4 -2 -0 1 -5 -11 0 2 -1 -11 -4 -23 -7 24 27 10 24 -0 2 17 0 4 6
1 -0 -5 1 1 -1 -2 -1 -2 2 1 0 2 -0 1 -5 -1 0 -1 -10 -6 -5 -13 -8 -10 15 -1 25 -2 -7 -0 -5 1 8 12 7 19 7
-2 0 3 -0 -1 -2 -0 0 2 3 3 2 0 -1 1 -4 -1 2 0 -4 -6 -1 -2 6 4 -1 -3 0 -10 11 7 12 12 15 7 -5 7 -7
1 2 2 0 -0 0 0 1 1 2 1 -1 -0 1 -1 -5 -2 -2 -0 -1 0 -3 1 -1 0 -2 -3 -7 6 18 13 18 15 14 7 1 7 1
Height
5538 5544 5551 5558 5565 5574 5582 5589 5594 5610 5626 5637 5639 5645 5656 5664 5670 5676 5683 5688 5692 5698 5704 5708 5714 5720 5725 5731 5737 5743 5749 5751 5754 5758 5761 5765 5768 5770
5494 5499 5506 5515 5524 5534 5543 5553 5563 5573 5591 5607 5614 5620 5626 5636 5647 5654 5661 5668 5674 5681 5688 5694 5698 5703 5707 5714 5721 5729 5734 5738 5742 5745 5749 5753 5756 5759
5450 5455 5464 5468 5479 5491 5501 5513 5526 5538 5553 5574 5584 5594 5598 5610 5621 5629 5639 5647 5653 5662 5671 5677 5682 5685 5691 5698 5705 5713 5719 5724 5728 5732 5736 5741 5745 5748
5415 5417 5424 5426 5435 5445 5455 5470 5483 5498 5515 5534 5549 5562 5571 5578 5595 5606 5613 5624 5631 5641 5650 5657 5665 5668 5676 5682 5688 5696 5703 5709 5714 5718 5723 5728 5732 5736
5388 5388 5392 5394 5402 5408 5416 5427 5440 5454 5471 5493 5511 5525 5539 5551 5566 5579 5591 5602 5611 5618 5629 5637 5644 5650 5655 5665 5670 5678 5686 5693 5699 5704 5710 5715 5721 5725
5366 5367 5368 5367 5372 5377 5382 5391 5401 5412 5428 5448 5470 5488 5503 5519 5534 5551 5565 5576 5590 5598 5607 5619 5626 5632 5639 5650 5655 5659 5668 5677 5683 5690 5695 5701 5707 5712
5348 5348 5348 5348 5349 5351 5354 5363 5369 5378 5390 5406 5426 5446 5466 5482 5499 5515 5534 5547 5565 5577 5586 5594 5605 5612 5619 5629 5638 5642 5650 5660 5667 5675 5681 5687 5694 5698
5331 5330 5330 5330 5330 5330 5332 5337 5343 5348 5359 5371 5390 5403 5424 5445 5461 5480 5498 5515 5539 5553 5558 5574 5581 5590 5600 5610 5620 5628 5635 5643 5650 5659 5666 5672 5679 5685
5313 5314 5314 5314 5313 5313 5314 5316 5319 5326 5331 5342 5355 5369 5385 5406 5431 5449 5462 5482 5505 5522 5529 5547 5561 5571 5580 5589 5598 5609 5616 5624 5633 5641 5651 5657 5664 5669
5297 5298 5299 5300 5298 5296 5296 5298 5301 5304 5311 5318 5327 5346 5353 5371 5388 5409 5428 5444 5469 5491 5501 5520 5537 5551 5563 5570 5579 5588 5596 5606 5614 5622 5632 5640 5647 5653
5284 5285 5284 5285 5284 5282 5280 5281 5284 5290 5294 5295 5302 5314 5324 5336 5354 5371 5391 5408 5436 5458 5471 5490 5516 5527 5538 5553 5560 5570 5577 5587 5595 5603 5611 5621 5629 5636
5272 5273 5272 5271 5270 5270 5267 5267 5271 5277 5274 5276 5281 5289 5298 5308 5320 5336 5361 5375 5402 5421 5447 5463 5490 5496 5511 5529 5540 5553 5560 5570 5578 5584 5593 5601 5608 5615
5260 5261 5260 5259 5258 5256 5254 5254 5257 5257 5258 5258 5264 5270 5276 5284 5295 5307 5328 5347 5368 5391 5420 5429 5454 5468 5482 5505 5520 5532 5544 5554 5560 5566 5575 5583 5590 5597
5248 5249 5248 5248 5246 5244 5242 5241 5241 5240 5241 5244 5247 5254 5259 5265 5276 5283 5300 5315 5335 5365 5383 5395 5420 5439 5457 5479 5495 5509 5524 5535 5540 5549 5558 5566 5572 5580
5236 5236 5236 5236 5234 5233 5231 5228 5227 5227 5227 5229 5233 5238 5243 5247 5250 5256 5267 5284 5303 5333 5347 5369 5390 5412 5430 5454 5472 5485 5500 5510 5521 5532 5541 5547 5554 5562
5225 5225 5224 5222 5221 5220 5219 5217 5214 5213 5213 5215 5218 5221 5223 5225 5229 5235 5242 5260 5274 5301 5319 5342 5364 5380 5403 5429 5444 5462 5476 5486 5502 5514 5524 5531 5537 5543
5214 5215 5214 5213 5210 5209 5207 5204 5202 5200 5200 5199 5201 5204 5206 5207 5212 5216 5220 5233 5244 5272 5289 5314 5339 5354 5376 5398 5416 5438 5453 5469 5484 5494 5505 5514 5522 5530
5205 5204 5203 5201 5198 5196 5195 5193 5191 5189 5187 5185 5184 5185 5186 5189 5192 5194 5198 5205 5220 5242 5261 5284 5307 5326 5346 5367 5393 5416 5433 5446 5461 5471 5485 5496 5505 5514
5195 5193 5191 5189 5186 5184 5181 5179 5178 5176 5172 5170 5168 5167 5166 5166 5169 5173 5176 5181 5196 5217 5236 5257 5275 5295 5317 5340 5374 5393 5413 5428 5441 5453 5464 5476 5490 5499
5184 5182 5180 5176 5173 5170 5168 5165 5163 5160 5157 5154 5151 5148 5146 5144 5145 5149 5155 5160 5173 5190 5208 5227 5245 5267 5293 5328 5350 5373 5388 5402 5419 5436 5449 5460 5474 5482
5175 5173 5168 5165 5162 5159 5155 5151 5147 5144 5141 5137 5134 5130 5128 5126 5127 5130 5133 5139 5150 5161 5177 5196 5222 5252 5281 5306 5308 5335 5359 5384 5403 5418 5430 5443 5454 5466
5165 5162 5160 5156 5151 5147 5142 5137 5133 5130 5126 5121 5116 5113 5111 5110 5112 5113 5116 5122 5129 5140 5156 5178 5198 5221 5246 5261 5291 5319 5337 5361 5378 5393 5404 5419 5438 5449
5156 5153 5150 5146 5141 5135 5129 5124 5119 5114 5110 5104 5099 5096 5093 5093 5093 5097 5101 5105 5111 5119 5132 5150 5169 5190 5216 5241 5270 5290 5311 5334 5354 5376 5389 5406 5420 5434